Aérodrome :
LOGIN :

S'inscrire | Disclaimer

   EN    FR    IT 

 










Légende :    VFR   VFR Marginal   IFR   IFR Intensif   IFR Très Intensif
Visi : 
Plafond : 
>= 8 km
>= 3000ft
5 à 8 km
1000 à 3000 ft
1500m à 5 km
500 à 1000 ft
800 à 1500m
200 à 500 ft
< 800m
< 200 ft
Symboles :   Orages  Brouillard  Fortes neiges  Fortes précipitations  Vent > 20 kt
SIGMETs :   Divers  Orages  Givrage  Turbulence  Onde Orograph.  Cendres Volcan.






- Altitude de l'aérodrome : 13 ft
- Code IATA : CEQ


LFMD - Cannes Mandelieu

DERNIER METAR :
  • 272130Z AUTO 02005KT 340V060 8000 BKN021 09/07 Q1024

METARs EXPIRÉS :
  • 272100Z AUTO 02004KT 340V050 7000 BKN022 09/07 Q1024
  • 272030Z AUTO 02004KT 330V050 7000 OVC023 09/08 Q1024
  • 272000Z AUTO 01004KT 330V040 7000 FEW027 09/08 Q1024 NOSIG
  • 271930Z AUTO VRB03KT 8000 NSC 10/08 Q1024 NOSIG
  • 271900Z AUTO 02004KT 330V050 9000 NSC 10/09 Q1023 NOSIG

TAF TAF LFMD
Valide du 27 à 15h jusqu'au 28 à 15h UTC


271400Z 2715/2815 06010KT 9999 BKN025
BECMG 2717/2720 36004KT FEW030
BECMG 2800/2803 CAVOK
BECMG 2807/2810 08012KT
TEMPO 2810/2815 08018G28KT
ATIS : +33 4 93 48 73 23



MET'MAP, la Météo Aéronautique d'un coup d'oeil ! - Copyright ORBIFLY Décembre 2007 - Disclaimer

ORBIFLY MET'MAP TEAM :

Programmation & Développement : Alexandra Zaïnal
Sur une idée originale de : Baudouin d'Aumeries
Assistance à la programmation : Marc-Olivier Méhu
Soutien technique & logistique : Manuel Goepfert

Contact : metmap@orbifly.com




SOURCES & CREDITS :

   NOAA